Flag for Bosnia-Herzegovina Weather past 2 weeks in Tuzla, Bosnia-Herzegovina

Now
55 °F

Clear.


Feels Like: 55 °F
Forecast: 46 / 74 °F
Wind: 1 mph from North

Location: Tuzla

Current Time: Sep 30, 2014 at 10:48:35 PM

Latest Report: Sep 30, 2014 at 9:00 PM


Visibility: 10 mi

Pressure: 30.27 "Hg

Humidity: 100%

Dew point: 55 °F

Location of TuzlaLocation

Historic Weather in Tuzla — Graph

°F

Tuzla temperature yesterday

Maximum temperature yesterday: 72 °F (at 2:00 PM)
Minimum temperature yesterday: 41 °F (at 6:30 AM)
Average temperature yesterday: 58 °F

Past Weeks' High & Low Weather Summary

 TemperatureHumidityPressure
High81 °F (Sep 19, 2:00 PM)100% (Sep 15, 9:00 PM)30.42 "Hg (Sep 15, 9:00 PM)
Low39 °F (Sep 24, 6:00 AM)39% (Sep 19, 2:00 PM)29.80 "Hg (Sep 22, 6:00 AM)
Average60 °F85%30.13 "Hg
* Reported Sep 15 9:00 PM — Sep 30 9:00 PM, Tuzla, Weather by CustomWeather, © 2014

Note: Actual official high and low records may vary slightly from our data, if they occured in-between our weather recording intervals... More about our weather records

Advertising

Tuzla weather history for previous 24 hours

 ConditionsComfort  
Time TempWeatherWind HumidityBarometerVisibility
9:00 PM
Sep 30
55 °FClear.1 mph100%30.27 "Hg10 mi
8:30 PM57 °FClear.1 mph100%30.27 "Hg10 mi
8:00 PM57 °FClear.1 mph100%30.27 "Hg10 mi
7:30 PM59 °FClear.1 mph100%30.27 "Hg10 mi
7:00 PM61 °FSunny.2 mph100%30.27 "Hg10 mi
6:30 PM63 °FPassing clouds.3 mph94%30.27 "HgN/A
6:00 PM68 °FSunny.2 mph78%30.27 "Hg10 mi
5:30 PM75 °FPassing clouds.1 mph61%30.27 "HgN/A
5:00 PM75 °FPassing clouds.2 mph50%30.27 "HgN/A
4:30 PM75 °FPassing clouds.3 mph50%30.27 "HgN/A
4:00 PM75 °FSunny.2 mph50%30.27 "Hg10 mi
3:30 PM75 °FSunny.2 mph50%30.27 "Hg10 mi
3:00 PM75 °FPassing clouds.5 mph54%30.27 "HgN/A
2:30 PM73 °FPassing clouds.3 mph53%30.27 "HgN/A
1:30 PM72 °FPassing clouds.3 mph53%30.30 "HgN/A
1:00 PM72 °FPassing clouds.3 mph53%30.30 "HgN/A
12:30 PM70 °FSunny.2 mph60%30.30 "Hg10 mi
12:00 PM68 °FSunny.2 mph69%30.30 "Hg10 mi
11:30 AM63 °FSunny.2 mph88%30.30 "Hg10 mi
11:00 AM59 °FSunny.2 mph100%30.33 "Hg10 mi
10:30 AM55 °FSunny.2 mph100%30.33 "Hg10 mi
10:00 AM52 °FFog.2 mph100%30.33 "Hg1 mi
9:30 AM50 °FFog.2 mph100%30.33 "Hg1 mi
9:00 AM48 °FFog.3 mph100%30.33 "Hg0 mi
8:30 AM46 °FFog.1 mph100%30.33 "Hg0 mi
8:00 AM46 °FFog.1 mph100%30.33 "Hg0 mi
7:00 AM45 °FFog.2 mph100%30.33 "Hg0 mi
6:30 AM45 °FFog.1 mph100%30.30 "Hg0 mi
6:00 AM45 °FFog.1 mph100%30.30 "Hg0 mi
Weather by CustomWeather, © 2014

See weather overviewHow to use our weather pages